Погода в Ставангере

Норвегия     58°57′55″N   5°43′31″E
темп.,
°C
ветер,
м/с
пор.,
м/с
влажн.,
%
обл.,
%
осадки,
мм/ч
давл.,
гПа
погр.,
м
10 апреля, сб
сб1023:00+4сз9106283 1.2 10051335
02:00+4зсз9106788 1.8 10061244
05:00+4сз896952 1.0 1007975
08:00+4сз88685 1.8 10091060
11:00+4сз896346 0.5 10111277
14:00+4сз88636 0.9 10131171
17:00+5сз66565 0.1 10141329
20:00+4сз56575 0.2 10151253
11 апреля, вс
вс1123:00+4ссз556020 0.3 10161006
02:00+4с44615 0.4 1016877
05:00+3ссв33685 0.1 1016381
08:00+2св34675 0.1 1016372
11:00+2ссв44670 0.0 1017318
14:00+3с23580 0.0 1017236
17:00+4ссз22500 0.0 1017365
20:00+5с234711 0.0 1017422
12 апреля, пн
пн1223:00+5с4458100 0.0 1018375
02:00+4всв236099 0.0 1017330
05:00+4св1261100 0.0 1018387
08:00+3в1263100 0.0 1018318
11:00+4ссв2266100 0.0 1019303
14:00+4с236382 0.0 1020222
17:00+5сз5564100 0.0 1020434
20:00+5сз88695 0.0 1020440
13 апреля, вт
вт1323:00+5сз877180 0.0 1022528
02:00+5сз347022 0.0 1023646
05:00+4ссв12715 0.0 1023396
08:00+4с127234 0.0 1024388
11:00+4ссз33735 0.0 1026426
14:00+5сз55600 0.0 1026754
17:00+6ссз109631 0.0 10271080
20:00+5ссз1111675 0.0 10281082
14 апреля, ср
ср1423:00+5ссз9106625 0.0 1030799
02:00+4с67685 0.0 1030663
05:00+4с44705 0.0 1031507
08:00+3с34705 0.0 1032493
11:00+3с34685 0.0 1034428
14:00+4ссз2360100 0.0 1034375
17:00+6сз44595 0.0 1034460
20:00+6с45650 0.0 1034293